Time,TemperatureF,DewpointF,PressureIn,WindDirection,WindDirectionDegrees,WindSpeedMPH,WindSpeedGustMPH,Humidity,HourlyPrecipIn,Conditions,Clouds,dailyrainin,SoftwareType,DateUTC
2013-12-04 00:01:00,15.8,12.6,30.54,NNE,23,0.0,0.0,87,0.00,CLR,,0.00,WeatherDisplay:10.37,2013-12-04 09:01:00,
2013-12-04 00:06:00,15.9,12.7,30.53,NNE,24,0.0,0.0,87,0.00,CLR,,0.00,WeatherDisplay:10.37,2013-12-04 09:06:00,
2013-12-04 00:11:00,16.0,12.8,30.53,NNE,24,0.0,0.0,87,0.00,CLR,,0.00,WeatherDisplay:10.37,2013-12-04 09:11:00,
2013-12-04 00:16:00,16.1,12.9,30.53,NNE,23,0.0,0.0,87,0.00,CLR,,0.00,WeatherDisplay:10.37,2013-12-04 09:16:00,
2013-12-04 00:21:00,16.1,12.9,30.53,NNE,23,0.0,0.0,87,0.00,CLR,,0.00,WeatherDisplay:10.37,2013-12-04 09:21:00,
2013-12-04 00:26:00,16.2,13.0,30.53,NNE,24,0.0,0.0,87,0.00,CLR,,0.00,WeatherDisplay:10.37,2013-12-04 09:26:00,
2013-12-04 00:31:00,16.3,12.8,30.53,NNE,24,0.0,0.0,86,0.00,CLR,,0.00,WeatherDisplay:10.37,2013-12-04 09:31:00,
2013-12-04 00:36:00,16.3,12.8,30.53,NNE,24,0.0,0.0,86,0.00,CLR,,0.00,WeatherDisplay:10.37,2013-12-04 09:36:00,
2013-12-04 00:41:00,16.3,12.8,30.53,NNE,24,0.0,0.0,86,0.00,CLR,,0.00,WeatherDisplay:10.37,2013-12-04 09:41:00,
2013-12-04 00:46:00,16.3,12.8,30.53,NNE,24,0.0,0.0,86,0.00,CLR,,0.00,WeatherDisplay:10.37,2013-12-04 09:46:00,
2013-12-04 00:51:00,16.4,12.9,30.53,NNE,24,0.0,0.0,86,0.00,CLR,,0.00,WeatherDisplay:10.37,2013-12-04 09:51:00,
2013-12-04 00:56:00,16.4,12.9,30.53,NNE,23,0.0,0.0,86,0.00,CLR,,0.00,WeatherDisplay:10.37,2013-12-04 09:56:00,
2013-12-04 01:01:00,16.5,13.0,30.53,NNE,24,0.0,0.0,86,0.00,CLR,,0.00,WeatherDisplay:10.37,2013-12-04 10:01:00,
2013-12-04 01:06:00,16.7,13.2,30.53,NNE,24,0.0,0.0,86,0.00,CLR,,0.00,WeatherDisplay:10.37,2013-12-04 10:06:00,
2013-12-04 01:11:00,16.9,13.4,30.52,NNE,24,0.0,0.0,86,0.00,CLR,,0.00,WeatherDisplay:10.37,2013-12-04 10:11:00,
2013-12-04 01:16:00,17.1,13.6,30.52,NNE,23,0.0,0.0,86,0.00,CLR,,0.00,WeatherDisplay:10.37,2013-12-04 10:16:00,
2013-12-04 01:21:00,17.3,13.8,30.52,NNE,24,0.0,0.0,86,0.00,CLR,,0.00,WeatherDisplay:10.37,2013-12-04 10:21:00,
2013-12-04 01:26:00,17.3,13.6,30.52,NNE,24,0.0,0.0,85,0.00,CLR,,0.00,WeatherDisplay:10.37,2013-12-04 10:26:00,
2013-12-04 01:31:00,17.6,13.9,30.53,NNE,23,0.0,0.0,85,0.00,CLR,,0.00,WeatherDisplay:10.37,2013-12-04 10:31:00,
2013-12-04 01:36:00,17.7,14.0,30.53,NNE,24,0.0,0.0,85,0.00,CLR,,0.00,WeatherDisplay:10.37,2013-12-04 10:36:00,
2013-12-04 01:41:00,18.0,14.3,30.53,NNE,24,0.0,0.0,85,0.00,CLR,,0.00,WeatherDisplay:10.37,2013-12-04 10:41:00,
2013-12-04 01:46:00,18.2,14.2,30.53,NNE,24,0.0,0.0,84,0.00,CLR,,0.00,WeatherDisplay:10.37,2013-12-04 10:46:00,
2013-12-04 01:51:00,18.2,14.2,30.52,NNE,24,0.0,0.0,84,0.00,CLR,,0.00,WeatherDisplay:10.37,2013-12-04 10:51:00,
2013-12-04 01:56:00,18.2,14.2,30.52,NNE,23,0.0,0.0,84,0.00,CLR,,0.00,WeatherDisplay:10.37,2013-12-04 10:56:00,
2013-12-04 02:01:00,18.2,14.2,30.52,NNE,24,0.0,0.0,84,0.00,CLR,,0.00,WeatherDisplay:10.37,2013-12-04 11:01:00,
2013-12-04 02:06:00,18.3,14.3,30.52,NNE,24,0.0,0.0,84,0.00,CLR,,0.00,WeatherDisplay:10.37,2013-12-04 11:06:00,
2013-12-04 02:11:00,18.4,14.4,30.52,NNE,23,0.0,0.0,84,0.00,CLR,,0.00,WeatherDisplay:10.37,2013-12-04 11:11:00,
2013-12-04 02:16:00,18.5,14.5,30.52,NNE,23,0.0,0.0,84,0.00,CLR,,0.00,WeatherDisplay:10.37,2013-12-04 11:16:00,
2013-12-04 02:21:00,18.5,14.5,30.52,NNE,24,0.0,0.0,84,0.00,CLR,,0.00,WeatherDisplay:10.37,2013-12-04 11:21:00,
2013-12-04 02:26:00,18.6,14.6,30.52,NNE,24,0.0,0.0,84,0.00,CLR,,0.00,WeatherDisplay:10.37,2013-12-04 11:26:00,
2013-12-04 02:31:00,18.7,14.7,30.52,NNE,23,0.0,0.0,84,0.00,CLR,,0.00,WeatherDisplay:10.37,2013-12-04 11:31:00,
2013-12-04 02:36:00,18.8,14.8,30.52,NNE,24,0.0,0.0,84,0.00,CLR,,0.00,WeatherDisplay:10.37,2013-12-04 11:36:00,
2013-12-04 02:41:00,18.8,14.8,30.52,NNE,23,0.0,0.0,84,0.00,CLR,,0.00,WeatherDisplay:10.37,2013-12-04 11:41:00,
2013-12-04 02:46:00,18.8,14.8,30.52,NNE,24,0.0,0.0,84,0.00,CLR,,0.00,WeatherDisplay:10.37,2013-12-04 11:46:00,
2013-12-04 02:51:00,18.8,14.8,30.51,NNE,23,0.0,0.0,84,0.00,CLR,,0.00,WeatherDisplay:10.37,2013-12-04 11:51:00,
2013-12-04 02:56:00,18.7,14.7,30.51,NNE,24,0.0,0.0,84,0.00,CLR,,0.00,WeatherDisplay:10.37,2013-12-04 11:56:00,
2013-12-04 03:01:00,18.6,14.6,30.51,NNE,24,0.0,0.0,84,0.00,CLR,,0.00,WeatherDisplay:10.37,2013-12-04 12:01:00,
2013-12-04 03:06:00,18.8,15.0,30.51,NNE,23,0.0,0.0,85,0.00,CLR,,0.00,WeatherDisplay:10.37,2013-12-04 12:06:00,
2013-12-04 03:11:00,19.0,15.2,30.51,NNE,24,0.0,0.0,85,0.00,CLR,,0.00,WeatherDisplay:10.37,2013-12-04 12:11:00,
2013-12-04 03:16:00,19.3,15.3,30.51,NNE,24,0.0,0.0,84,0.00,CLR,,0.00,WeatherDisplay:10.37,2013-12-04 12:16:00,
2013-12-04 03:21:00,19.7,15.6,30.51,NNE,24,0.0,0.0,84,0.00,CLR,,0.00,WeatherDisplay:10.37,2013-12-04 12:21:00,
2013-12-04 03:26:00,20.0,15.7,30.51,NNE,24,0.0,0.0,83,0.00,CLR,,0.00,WeatherDisplay:10.37,2013-12-04 12:26:00,
2013-12-04 03:31:00,20.3,15.7,30.51,NNE,23,0.0,0.0,82,0.00,CLR,,0.00,WeatherDisplay:10.37,2013-12-04 12:31:00,
2013-12-04 03:36:00,20.4,15.8,30.50,NNE,24,0.0,0.0,82,0.00,CLR,,0.00,WeatherDisplay:10.37,2013-12-04 12:36:00,
2013-12-04 03:41:00,20.7,16.1,30.50,NNE,24,0.0,0.0,82,0.00,CLR,,0.00,WeatherDisplay:10.37,2013-12-04 12:41:00,
2013-12-04 03:46:00,21.0,16.4,30.50,NNE,24,0.0,0.0,82,0.00,CLR,,0.00,WeatherDisplay:10.37,2013-12-04 12:46:00,
2013-12-04 03:51:00,21.3,16.4,30.50,NNE,24,0.0,0.0,81,0.00,CLR,,0.00,WeatherDisplay:10.37,2013-12-04 12:51:00,
2013-12-04 03:56:00,21.5,16.3,30.50,NNE,24,0.0,0.0,80,0.00,CLR,,0.00,WeatherDisplay:10.37,2013-12-04 12:56:00,
2013-12-04 04:01:00,21.6,16.4,30.50,NNE,24,0.0,0.0,80,0.00,CLR,,0.00,WeatherDisplay:10.37,2013-12-04 13:01:00,
2013-12-04 04:06:00,21.5,16.6,30.49,NNE,23,0.0,0.0,81,0.00,CLR,,0.00,WeatherDisplay:10.37,2013-12-04 13:06:00,
2013-12-04 04:11:00,21.3,16.4,30.49,NNE,24,0.0,0.0,81,0.00,CLR,,0.00,WeatherDisplay:10.37,2013-12-04 13:11:00,
2013-12-04 04:16:00,21.1,16.2,30.49,NNE,24,0.0,0.0,81,0.00,CLR,,0.00,WeatherDisplay:10.37,2013-12-04 13:16:00,
2013-12-04 04:21:00,21.1,16.2,30.49,NNE,23,0.0,0.0,81,0.00,CLR,,0.00,WeatherDisplay:10.37,2013-12-04 13:21:00,
2013-12-04 04:26:00,21.3,16.4,30.49,NNE,23,0.0,0.0,81,0.00,CLR,,0.00,WeatherDisplay:10.37,2013-12-04 13:26:00,
2013-12-04 04:31:00,21.2,16.3,30.49,NNE,24,0.0,0.0,81,0.00,CLR,,0.00,WeatherDisplay:10.37,2013-12-04 13:31:00,
2013-12-04 04:36:00,21.1,16.2,30.49,NNE,24,0.0,0.0,81,0.00,CLR,,0.00,WeatherDisplay:10.37,2013-12-04 13:36:00,
2013-12-04 04:41:00,21.2,16.3,30.48,NNE,23,0.0,0.0,81,0.00,CLR,,0.00,WeatherDisplay:10.37,2013-12-04 13:41:00,
2013-12-04 04:46:00,21.2,16.6,30.48,NNE,24,0.0,0.0,82,0.00,CLR,,0.00,WeatherDisplay:10.37,2013-12-04 13:46:00,
2013-12-04 04:51:00,21.1,16.5,30.48,NNE,24,0.0,0.0,82,0.00,CLR,,0.00,WeatherDisplay:10.37,2013-12-04 13:51:00,
2013-12-04 04:56:00,21.0,16.4,30.48,NNE,23,0.0,0.0,82,0.00,CLR,,0.00,WeatherDisplay:10.37,2013-12-04 13:56:00,
2013-12-04 05:01:00,21.0,16.4,30.48,NNE,24,0.0,0.0,82,0.00,CLR,,0.00,WeatherDisplay:10.37,2013-12-04 14:01:00,
2013-12-04 05:06:00,21.1,16.5,30.48,NNE,24,0.0,0.0,82,0.00,CLR,,0.00,WeatherDisplay:10.37,2013-12-04 14:06:00,
2013-12-04 05:11:00,21.2,16.6,30.47,NNE,24,0.0,0.0,82,0.00,CLR,,0.00,WeatherDisplay:10.37,2013-12-04 14:11:00,
2013-12-04 05:16:00,21.2,16.6,30.47,NNE,23,0.0,0.0,82,0.00,CLR,,0.00,WeatherDisplay:10.37,2013-12-04 14:16:00,
2013-12-04 05:21:00,21.2,16.6,30.47,NNE,23,0.0,0.0,82,0.00,CLR,,0.00,WeatherDisplay:10.37,2013-12-04 14:21:00,
2013-12-04 05:26:00,21.1,16.5,30.47,NNE,23,0.0,0.0,82,0.00,CLR,,0.00,WeatherDisplay:10.37,2013-12-04 14:26:00,
2013-12-04 05:31:00,21.2,16.6,30.47,NNE,23,0.0,0.0,82,0.00,CLR,,0.00,WeatherDisplay:10.37,2013-12-04 14:31:00,
2013-12-04 05:36:00,21.2,16.6,30.47,NNE,24,0.0,0.0,82,0.00,CLR,,0.00,WeatherDisplay:10.37,2013-12-04 14:36:00,
2013-12-04 05:41:00,21.1,16.5,30.47,NNE,23,0.0,0.0,82,0.00,CLR,,0.00,WeatherDisplay:10.37,2013-12-04 14:41:00,
2013-12-04 05:46:00,21.0,16.6,30.47,NNE,24,0.0,0.0,83,0.00,CLR,,0.00,WeatherDisplay:10.37,2013-12-04 14:46:00,
2013-12-04 05:51:00,20.9,16.5,30.46,NNE,24,0.0,0.0,83,0.00,CLR,,0.00,WeatherDisplay:10.37,2013-12-04 14:51:00,
2013-12-04 05:56:00,20.9,16.5,30.46,NNE,23,0.0,0.0,83,0.00,CLR,,0.00,WeatherDisplay:10.37,2013-12-04 14:56:00,
2013-12-04 06:01:00,20.9,16.5,30.46,NNE,23,0.0,0.0,83,0.00,CLR,,0.00,WeatherDisplay:10.37,2013-12-04 15:01:00,
2013-12-04 06:06:00,20.9,16.5,30.46,NNE,24,0.0,0.0,83,0.00,CLR,,0.00,WeatherDisplay:10.37,2013-12-04 15:06:00,
2013-12-04 06:11:00,20.9,16.5,30.46,NNE,24,0.0,0.0,83,0.00,CLR,,0.00,WeatherDisplay:10.37,2013-12-04 15:11:00,
2013-12-04 06:16:00,20.7,16.4,30.46,NNE,23,0.0,0.0,83,0.00,CLR,,0.00,WeatherDisplay:10.37,2013-12-04 15:16:00,
2013-12-04 06:21:00,20.5,16.2,30.46,NNE,23,0.0,0.0,83,0.00,CLR,,0.00,WeatherDisplay:10.37,2013-12-04 15:21:00,
2013-12-04 06:26:00,20.4,16.3,30.46,NNE,24,0.0,0.0,84,0.00,CLR,,0.00,WeatherDisplay:10.37,2013-12-04 15:26:00,
2013-12-04 06:31:00,20.2,16.1,30.46,NNE,24,0.0,0.0,84,0.00,CLR,,0.00,WeatherDisplay:10.37,2013-12-04 15:31:00,
2013-12-04 06:36:00,20.1,16.0,30.46,NNE,23,0.0,0.0,84,0.00,CLR,,0.00,WeatherDisplay:10.37,2013-12-04 15:36:00,
2013-12-04 06:41:00,20.1,16.3,30.46,NNE,24,0.0,0.0,85,0.00,CLR,,0.00,WeatherDisplay:10.37,2013-12-04 15:41:00,
2013-12-04 06:46:00,20.1,16.3,30.46,NNE,24,0.0,0.0,85,0.00,CLR,,0.00,WeatherDisplay:10.37,2013-12-04 15:46:00,
2013-12-04 06:51:00,20.1,16.3,30.46,NNE,24,0.0,0.0,85,0.00,CLR,,0.00,WeatherDisplay:10.37,2013-12-04 15:51:00,
2013-12-04 06:56:00,20.4,16.6,30.46,NNE,24,0.0,0.0,85,0.00,CLR,,0.00,WeatherDisplay:10.37,2013-12-04 15:56:00,
2013-12-04 07:01:00,20.6,16.8,30.46,NNE,24,0.0,0.0,85,0.00,CLR,,0.00,WeatherDisplay:10.37,2013-12-04 16:01:00,
2013-12-04 07:06:00,20.7,16.9,30.46,NNE,24,0.0,0.0,85,0.00,CLR,,0.00,WeatherDisplay:10.37,2013-12-04 16:06:00,
2013-12-04 07:11:00,20.9,16.8,30.46,NNE,23,0.0,0.0,84,0.00,CLR,,0.00,WeatherDisplay:10.37,2013-12-04 16:11:00,
2013-12-04 07:16:00,20.8,16.7,30.46,NNE,23,0.0,0.0,84,0.00,CLR,,0.00,WeatherDisplay:10.37,2013-12-04 16:16:00,
2013-12-04 07:21:00,20.8,16.7,30.46,NNE,24,0.0,0.0,84,0.00,CLR,,0.00,WeatherDisplay:10.37,2013-12-04 16:21:00,
2013-12-04 07:26:00,20.8,16.7,30.46,NNE,24,0.0,0.0,84,0.00,CLR,,0.00,WeatherDisplay:10.37,2013-12-04 16:26:00,
2013-12-04 07:31:00,20.7,16.6,30.46,NNE,23,0.0,0.0,84,0.00,CLR,,0.00,WeatherDisplay:10.37,2013-12-04 16:31:00,
2013-12-04 07:36:00,20.7,16.6,30.46,NNE,24,0.0,0.0,84,0.00,CLR,,0.00,WeatherDisplay:10.37,2013-12-04 16:36:00,
2013-12-04 07:41:00,20.7,16.6,30.46,NNE,23,0.0,0.0,84,0.00,CLR,,0.00,WeatherDisplay:10.37,2013-12-04 16:41:00,
2013-12-04 07:46:00,20.6,16.5,30.46,NNE,23,0.0,0.0,84,0.00,CLR,,0.00,WeatherDisplay:10.37,2013-12-04 16:46:00,
2013-12-04 07:51:00,20.6,16.8,30.46,NNE,23,0.0,0.0,85,0.00,CLR,,0.00,WeatherDisplay:10.37,2013-12-04 16:51:00,
2013-12-04 07:55:00,20.9,17.1,30.45,NNE,24,0.0,0.0,85,0.00,CLR,,0.00,WeatherDisplay:10.37,2013-12-04 16:55:00,
2013-12-04 07:56:00,20.7,16.9,30.45,NNE,24,0.0,0.0,85,0.00,CLR,,0.00,WeatherDisplay:10.37,2013-12-04 16:56:00,
2013-12-04 08:01:00,20.8,17.0,30.45,NNE,24,0.0,0.0,85,0.00,CLR,,0.00,WeatherDisplay:10.37,2013-12-04 17:01:00,
2013-12-04 08:18:00,22.1,17.7,30.44,NNE,24,0.0,0.0,83,0.00,CLR,,0.00,WeatherDisplay:10.37,2013-12-04 17:18:00,
2013-12-04 08:51:00,21.6,17.5,30.44,NNE,24,0.0,0.0,84,0.00,CLR,,0.00,WeatherDisplay:10.37,2013-12-04 17:51:00,
2013-12-04 08:56:00,21.5,17.4,30.44,NNE,24,0.0,0.0,84,0.00,CLR,,0.00,WeatherDisplay:10.37,2013-12-04 17:56:00,
2013-12-04 09:01:00,21.2,17.1,30.44,NNE,23,0.0,0.0,84,0.00,CLR,,0.00,WeatherDisplay:10.37,2013-12-04 18:01:00,
2013-12-04 09:32:00,21.5,17.7,30.44,NNE,23,0.0,0.0,85,0.00,CLR,,0.00,WeatherDisplay:10.37,2013-12-04 18:32:00,
2013-12-04 11:55:00,24.8,20.4,30.44,NNE,23,0.0,0.0,83,0.00,CLR,,0.00,WeatherDisplay:10.37,2013-12-04 20:55:00,
2013-12-04 12:52:00,26.2,21.7,30.42,NNE,24,0.0,0.0,83,0.00,CLR,,0.00,WeatherDisplay:10.37,2013-12-04 21:52:00,
2013-12-04 14:40:00,29.3,24.2,30.39,NNE,23,0.0,0.0,81,0.00,CLR,,0.00,WeatherDisplay:10.37,2013-12-04 23:40:00,
2013-12-04 15:00:00,29.3,23.9,30.38,NNE,24,0.0,0.0,80,0.00,CLR,,0.00,WeatherDisplay:10.37,2013-12-05 00:00:00,
2013-12-04 17:35:00,30.1,25.3,30.37,NNE,23,0.0,0.0,82,0.00,CLR,,0.00,WeatherDisplay:10.37,2013-12-05 02:35:00,
2013-12-04 17:40:00,30.1,25.3,30.37,NNE,23,0.0,0.0,82,0.00,CLR,,0.00,WeatherDisplay:10.37,2013-12-05 02:40:00,
2013-12-04 17:45:00,30.2,25.7,30.37,NNE,24,0.0,0.0,83,0.00,CLR,,0.00,WeatherDisplay:10.37,2013-12-05 02:45:00,
2013-12-04 17:50:00,30.2,25.7,30.37,NNE,23,0.0,0.0,83,0.00,CLR,,0.00,WeatherDisplay:10.37,2013-12-05 02:50:00,
2013-12-04 17:55:00,30.1,25.6,30.37,NNE,23,0.0,0.0,83,0.00,CLR,,0.00,WeatherDisplay:10.37,2013-12-05 02:55:00,
2013-12-04 18:00:00,30.2,25.4,30.37,NNE,24,0.0,0.0,82,0.00,CLR,,0.00,WeatherDisplay:10.37,2013-12-05 03:00:00,
2013-12-04 18:05:00,30.3,25.5,30.37,NNE,24,0.0,0.0,82,0.00,CLR,,0.00,WeatherDisplay:10.37,2013-12-05 03:05:00,
2013-12-04 18:10:00,30.3,25.8,30.37,NNE,23,0.0,0.0,83,0.00,CLR,,0.00,WeatherDisplay:10.37,2013-12-05 03:10:00,
2013-12-04 18:15:00,30.3,25.8,30.37,NNE,24,0.0,0.0,83,0.00,CLR,,0.00,WeatherDisplay:10.37,2013-12-05 03:15:00,
2013-12-04 18:20:00,30.3,25.5,30.36,NNE,24,0.0,0.0,82,0.00,CLR,,0.00,WeatherDisplay:10.37,2013-12-05 03:20:00,
2013-12-04 18:25:00,30.3,25.8,30.36,NNE,24,0.0,0.0,83,0.00,CLR,,0.00,WeatherDisplay:10.37,2013-12-05 03:25:00,
2013-12-04 18:30:00,30.3,25.8,30.37,NNE,23,0.0,0.0,83,0.00,CLR,,0.00,WeatherDisplay:10.37,2013-12-05 03:30:00,
2013-12-04 18:35:00,30.3,26.0,30.36,NNE,24,0.0,0.0,84,0.00,CLR,,0.00,WeatherDisplay:10.37,2013-12-05 03:35:00,
2013-12-04 18:40:00,30.3,25.8,30.36,NNE,24,0.0,0.0,83,0.00,CLR,,0.00,WeatherDisplay:10.37,2013-12-05 03:40:00,
2013-12-04 18:45:00,30.4,25.9,30.36,NNE,23,0.0,0.0,83,0.00,CLR,,0.00,WeatherDisplay:10.37,2013-12-05 03:45:00,
2013-12-04 18:50:00,30.5,26.0,30.36,NNE,24,0.0,0.0,83,0.00,CLR,,0.00,WeatherDisplay:10.37,2013-12-05 03:50:00,
2013-12-04 18:55:00,30.5,26.0,30.36,NNE,24,0.0,0.0,83,0.00,CLR,,0.00,WeatherDisplay:10.37,2013-12-05 03:55:00,
2013-12-04 19:00:00,30.5,26.2,30.37,NNE,24,0.0,0.0,84,0.00,CLR,,0.00,WeatherDisplay:10.37,2013-12-05 04:00:00,
2013-12-04 19:05:00,30.5,26.2,30.37,NNE,24,0.0,0.0,84,0.00,CLR,,0.00,WeatherDisplay:10.37,2013-12-05 04:05:00,
2013-12-04 19:10:00,30.5,26.2,30.37,NNE,24,0.0,0.0,84,0.00,CLR,,0.00,WeatherDisplay:10.37,2013-12-05 04:10:00,
2013-12-04 19:15:00,30.5,26.2,30.37,NNE,24,0.0,0.0,84,0.00,CLR,,0.00,WeatherDisplay:10.37,2013-12-05 04:15:00,
2013-12-04 19:20:00,30.5,26.2,30.37,NNE,24,0.0,0.0,84,0.00,CLR,,0.00,WeatherDisplay:10.37,2013-12-05 04:20:00,
2013-12-04 19:25:00,30.5,26.2,30.37,NNE,24,0.0,0.0,84,0.00,CLR,,0.00,WeatherDisplay:10.37,2013-12-05 04:25:00,
2013-12-04 19:30:00,30.5,26.2,30.37,NNE,24,0.0,0.0,84,0.00,CLR,,0.00,WeatherDisplay:10.37,2013-12-05 04:30:00,
2013-12-04 19:35:00,30.5,26.2,30.37,NNE,24,0.0,0.0,84,0.00,CLR,,0.00,WeatherDisplay:10.37,2013-12-05 04:35:00,
2013-12-04 19:40:00,30.5,26.2,30.37,NNE,24,0.0,0.0,84,0.00,CLR,,0.00,WeatherDisplay:10.37,2013-12-05 04:40:00,
2013-12-04 19:45:00,30.5,26.2,30.37,NNE,24,0.0,0.0,84,0.00,CLR,,0.00,WeatherDisplay:10.37,2013-12-05 04:45:00,
2013-12-04 19:50:00,30.5,26.2,30.37,NNE,24,0.0,0.0,84,0.00,CLR,,0.00,WeatherDisplay:10.37,2013-12-05 04:50:00,
2013-12-04 19:55:00,30.5,26.2,30.37,NNE,24,0.0,0.0,84,0.00,CLR,,0.00,WeatherDisplay:10.37,2013-12-05 04:55:00,
2013-12-04 20:00:00,30.5,26.2,30.37,NNE,24,0.0,0.0,84,0.00,CLR,,0.00,WeatherDisplay:10.37,2013-12-05 05:00:00,
2013-12-04 20:01:00,30.5,26.2,30.37,NNE,24,0.0,0.0,84,0.00,CLR,,0.00,WeatherDisplay:10.37,2013-12-05 05:01:00,
2013-12-04 20:06:00,30.5,26.2,30.37,NNE,24,0.0,0.0,84,0.00,CLR,,0.00,WeatherDisplay:10.37,2013-12-05 05:06:00,
2013-12-04 20:11:00,30.5,26.2,30.37,NNE,24,0.0,0.0,84,0.00,CLR,,0.00,WeatherDisplay:10.37,2013-12-05 05:11:00,
2013-12-04 20:16:00,30.5,26.2,30.37,NNE,24,0.0,0.0,84,0.00,CLR,,0.00,WeatherDisplay:10.37,2013-12-05 05:16:00,
2013-12-04 20:21:00,30.5,26.2,30.37,NNE,24,0.0,0.0,84,0.00,CLR,,0.00,WeatherDisplay:10.37,2013-12-05 05:21:00,
2013-12-04 20:26:00,30.5,26.2,30.37,NNE,24,0.0,0.0,84,0.00,CLR,,0.00,WeatherDisplay:10.37,2013-12-05 05:26:00,
2013-12-04 20:31:00,30.5,26.2,30.37,NNE,24,0.0,0.0,84,0.00,CLR,,0.00,WeatherDisplay:10.37,2013-12-05 05:31:00,
2013-12-04 20:36:00,30.5,26.2,30.37,NNE,24,0.0,0.0,84,0.00,CLR,,0.00,WeatherDisplay:10.37,2013-12-05 05:36:00,
2013-12-04 20:41:00,30.5,26.2,30.37,NNE,24,0.0,0.0,84,0.00,CLR,,0.00,WeatherDisplay:10.37,2013-12-05 05:41:00,
2013-12-04 20:46:00,30.5,26.2,30.37,NNE,24,0.0,0.0,84,0.00,CLR,,0.00,WeatherDisplay:10.37,2013-12-05 05:46:00,
2013-12-04 20:51:00,30.5,26.2,30.37,NNE,24,0.0,0.0,84,0.00,CLR,,0.00,WeatherDisplay:10.37,2013-12-05 05:51:00,
2013-12-04 20:56:00,30.5,26.2,30.37,NNE,24,0.0,0.0,84,0.00,CLR,,0.00,WeatherDisplay:10.37,2013-12-05 05:56:00,
2013-12-04 21:01:00,30.5,26.2,30.37,NNE,24,0.0,0.0,84,0.00,CLR,,0.00,WeatherDisplay:10.37,2013-12-05 06:01:00,
2013-12-04 21:06:00,30.5,26.2,30.37,NNE,24,0.0,0.0,84,0.00,CLR,,0.00,WeatherDisplay:10.37,2013-12-05 06:06:00,
2013-12-04 21:11:00,30.5,26.2,30.37,NNE,24,0.0,0.0,84,0.00,CLR,,0.00,WeatherDisplay:10.37,2013-12-05 06:11:00,
2013-12-04 21:16:00,30.5,26.2,30.37,NNE,24,0.0,0.0,84,0.00,CLR,,0.00,WeatherDisplay:10.37,2013-12-05 06:16:00,
2013-12-04 21:21:00,30.5,26.2,30.37,NNE,24,0.0,0.0,84,0.00,CLR,,0.00,WeatherDisplay:10.37,2013-12-05 06:21:00,
2013-12-04 21:26:00,30.5,26.2,30.37,NNE,24,0.0,0.0,84,0.00,CLR,,0.00,WeatherDisplay:10.37,2013-12-05 06:26:00,
2013-12-04 21:31:00,30.5,26.2,30.37,NNE,24,0.0,0.0,84,0.00,CLR,,0.00,WeatherDisplay:10.37,2013-12-05 06:31:00,